KN4QQN Weather Reports


time (UTC)temp
C
wind
direction
speed
KPH
gust
KPH
rain 1hr
cm
rain 24hr
cm
rain mn
cm
humidity
%
barometer
mb
20260508030028 12 222 0.0 3.2 0.00 0.00 0.00 93
20260508025028 12 0.0 0.0 0.00 0.00 0.00 93
20260508024028 12 231 0.0 3.2 0.00 0.00 0.00 93
20260508023028 12 197 0.0 3.2 0.00 0.00 0.00 93
20260508022048 12 209 0.0 3.2 0.00 0.00 0.00 93
20260508021028 12 227 1.6 3.2 0.00 0.00 0.00 93
20260508020028 12 216 0.0 3.2 0.00 0.00 0.00 93
20260508015028 12 215 1.6 4.8 0.00 0.00 0.00 93
20260508014028 12 196 0.0 1.6 0.00 0.00 0.00 93
20260508013028 12 106 1.6 3.2 0.00 0.00 0.00 93
20260508012029 12 89 1.6 3.2 0.00 0.00 0.00 92
20260508011028 12 92 0.0 1.6 0.00 0.00 0.00 92
20260508010028 12 236 1.6 4.8 0.00 0.00 0.00 92
20260508005028 12 125 1.6 3.2 0.00 0.00 0.00 92
20260508004028 12 217 0.0 1.6 0.00 0.00 0.00 92
20260508003028 12 95 0.0 3.2 0.00 0.00 0.00 92
20260508002048 12 152 0.0 3.2 0.00 0.00 0.00 92
20260508001028 12 108 1.6 6.4 0.00 0.00 0.00 92
20260508000108 12 97 1.6 6.4 0.00 0.00 0.00 91
20260507235028 12 102 3.2 6.4 0.00 0.00 0.00 91
20260507234028 13 130 3.2 4.8 0.00 0.00 0.00 91
20260507233028 13 118 3.2 4.8 0.00 0.00 0.00 90
20260507232028 13 222 0.0 3.2 0.00 0.00 0.00 90
20260507231028 13 174 1.6 3.2 0.00 0.00 0.00 90
20260507230028 13 179 3.2 8.0 0.00 0.00 0.00 89
20260507225028 13 188 1.6 3.2 0.00 0.00 0.00 89
20260507224028 13 78 4.8 8.0 0.00 0.00 0.00 88
20260507223048 13 81 4.8 9.7 0.00 0.00 0.00 88
20260507222028 13 111 4.8 12.9 0.00 0.00 0.00 88
20260507221028 13 122 4.8 9.7 0.00 0.00 0.00 89
20260507220028 13 154 3.2 8.0 0.00 0.00 0.00 89
20260507215028 13 103 4.8 9.7 0.00 0.00 0.00 89
20260507214028 13 120 3.2 9.7 0.00 0.00 0.00 90
20260507213028 13 113 6.4 12.9 0.00 0.00 0.00 90
20260507212028 13 165 3.2 6.4 0.00 0.00 0.00 92
20260507211029 13 98 4.8 9.7 0.00 0.00 0.00 92
20260507210108 13 139 4.8 9.7 0.00 0.00 0.00 93
20260507205028 13 52 4.8 11.3 0.00 0.00 0.00 93
20260507204028 13 99 3.2 9.7 0.00 0.00 0.00 93
20260507203029 13 135 4.8 9.7 0.00 0.00 0.00 92
20260507202029 13 138 4.8 12.9 0.00 0.00 0.00 93
20260507201028 13 139 8.0 16.1 0.00 0.00 0.00 92
20260507200028 13 177 6.4 11.3 0.00 0.00 0.00 92
20260507195028 13 95 4.8 11.3 0.00 0.00 0.00 92
20260507194029 13 94 8.0 12.9 0.00 0.00 0.00 93
20260507193048 13 110 6.4 12.9 0.00 0.00 0.00 94
20260507192028 13 109 4.8 9.7 0.00 0.00 0.00 94
20260507191028 13 125 3.2 8.0 0.00 0.00 0.00 94
20260507190028 13 190 3.2 6.4 0.00 0.00 0.00 94
20260507185030 13 107 4.8 9.7 0.00 0.00 0.00 95
20260507184028 13 123 4.8 9.7 0.00 0.00 0.00 94
20260507182028 13 123 6.4 12.9 0.00 0.00 0.00 94
20260507181028 13 91 6.4 14.5 0.00 0.00 0.00 95
20260507180028 14 118 8.0 14.5 0.00 0.00 0.00 95
20260507175028 14 130 4.8 9.7 0.00 0.00 0.00 95
20260507174018 14 133 6.4 11.3 0.00 0.00 0.00 95
20260507173018 14 19 4.8 12.9 0.00 0.00 0.00 94
20260507172018 15 129 6.4 12.9 0.00 0.00 0.00 94
20260507171019 15 114 6.4 11.3 0.00 0.00 0.00 92
20260507170058 16 120 8.0 14.5 0.00 0.00 0.00 90
20260507165018 19 93 8.0 14.5 0.00 0.00 0.00 91
20260507164018 20 134 1.6 4.8 0.00 0.00 0.00 95
20260507163018 20 131 1.6 4.8 0.00 0.00 0.00 95
20260507162019 19 255 3.2 8.0 0.00 0.00 0.00 94
20260507161018 19 119 1.6 4.8 0.00 0.00 0.00 94
20260507160019 20 193 1.6 6.4 0.00 0.00 0.00 95
20260507155019 20 212 1.6 3.2 0.00 0.00 0.00 95
20260507154018 20 172 0.0 1.6 0.00 0.00 0.00 95
20260507153019 20 231 0.0 3.2 0.00 0.00 0.00 96
20260507152038 20 175 0.0 3.2 0.00 0.00 0.00 96
20260507151038 20 185 0.0 3.2 0.00 0.00 0.00 96
20260507150019 20 278 1.6 3.2 0.00 0.00 0.00 96
20260507145019 20 0.0 1.6 0.00 0.00 0.00 96
20260507144019 20 157 0.0 1.6 0.00 0.00 0.00 96
20260507143018 20 0.0 0.0 0.00 0.00 0.00 96
20260507142019 20 0.0 0.0 0.00 0.00 0.00 96
20260507141019 20 205 0.0 3.2 0.00 0.00 0.00 96
20260507140019 20 169 0.0 1.6 0.00 0.00 0.00 97
20260507135019 20 132 0.0 6.4 0.00 0.00 0.00 97
20260507134019 19 188 0.0 1.6 0.00 0.00 0.00 97
20260507133020 19 243 1.6 6.4 0.00 0.00 0.00 97
20260507132019 19 233 0.0 4.8 0.00 0.00 0.00 97
20260507131018 19 229 0.0 4.8 0.00 0.00 0.00 97
20260507130019 18 166 0.0 3.2 0.00 0.00 0.00 97
20260507125019 18 145 0.0 3.2 0.00 0.00 0.00 97
20260507124019 18 182 0.0 3.2 0.00 0.00 0.00 97
20260507123019 18 0.0 0.0 0.00 0.00 0.00 97
20260507122018 18 0.0 0.0 0.00 0.00 0.00 97
20260507121039 18 160 0.0 1.6 0.00 0.00 0.00 97
20260507120019 18 0.0 0.0 0.00 0.00 0.00 97
20260507115019 18 0.0 0.0 0.00 0.00 0.00 97
20260507114019 18 0.0 0.0 0.00 0.00 0.00 97
20260507113019 18 0.0 0.0 0.00 0.00 0.00 97
20260507112039 18 123 0.0 3.2 0.00 0.00 0.00 97
20260507111039 18 120 0.0 1.6 0.00 0.00 0.00 97
20260507110019 18 218 0.0 3.2 0.00 0.00 0.00 97
20260507105019 18 147 0.0 3.2 0.00 0.00 0.00 97
20260507104039 18 153 0.0 3.2 0.00 0.00 0.00 97
20260507103019 18 135 0.0 1.6 0.00 0.00 0.00 97
20260507102019 18 155 0.0 1.6 0.00 0.00 0.00 97
20260507101019 18 0.0 0.0 0.00 0.00 0.00 96
20260507100019 17 195 0.0 3.2 0.00 0.00 0.00 96
20260507095019 17 256 1.6 3.2 0.00 0.00 0.00 96
20260507094019 17 0.0 0.0 0.00 0.00 0.00 96
20260507093019 17 0.0 0.0 0.00 0.00 0.00 96
20260507092019 17 0.0 0.0 0.00 0.00 0.00 96
20260507091019 17 0.0 0.0 0.00 0.00 0.00 96
20260507090019 17 0.0 0.0 0.00 0.00 0.00 96
20260507085039 18 0.0 0.0 0.00 0.00 0.00 96
20260507084019 18 103 0.0 3.2 0.00 0.00 0.00 96
20260507083019 18 111 0.0 3.2 0.00 0.00 0.00 96
20260507082019 18 133 0.0 1.6 0.00 0.00 0.00 96
20260507081019 18 0.0 1.6 0.00 0.00 0.00 96
20260507080019 18 0.0 0.0 0.00 0.00 0.00 96
20260507075019 18 0.0 0.0 0.00 0.00 0.00 96
20260507074019 18 136 0.0 1.6 0.00 0.00 0.00 95
20260507073019 18 0.0 0.0 0.00 0.00 0.00 95
20260507072019 18 0.0 0.0 0.00 0.00 0.00 95
20260507071019 18 0.0 0.0 0.00 0.00 0.00 95
20260507070039 18 0.0 0.0 0.00 0.00 0.00 95
20260507065019 18 0.0 0.0 0.00 0.00 0.00 95
20260507064019 18 0.0 0.0 0.00 0.00 0.00 95
20260507063019 18 0.0 1.6 0.00 0.00 0.00 95
20260507062019 18 0.0 0.0 0.00 0.00 0.00 94
20260507061019 18 159 0.0 3.2 0.00 0.00 0.00 94
20260507060019 18 0.0 1.6 0.00 0.00 0.00 94
20260507055039 18 0.0 0.0 0.00 0.00 0.00 94
20260507054019 18 0.0 0.0 0.00 0.00 0.00 94
20260507053019 18 208 1.6 3.2 0.00 0.00 0.00 93
20260507052019 18 0.0 1.6 0.00 0.00 0.00 93
20260507051019 18 140 0.0 4.8 0.00 0.00 0.00 92
20260507050039 18 188 1.6 4.8 0.00 0.00 0.00 92
20260507045019 18 144 1.6 4.8 0.00 0.00 0.00 91
20260507044019 19 129 1.6 4.8 0.00 0.00 0.00 90
20260507043019 19 209 1.6 4.8 0.00 0.00 0.00 89
20260507042019 20 183 1.6 4.8 0.00 0.00 0.00 87
20260507041019 20 180 3.2 6.4 0.00 0.00 0.00 86
20260507040039 20 268 1.6 4.8 0.00 0.00 0.00 87
20260507035039 20 0.0 0.0 0.00 0.00 0.00 86
20260507034019 20 220 0.0 1.6 0.00 0.00 0.00 84
20260507033019 20 167 0.0 3.2 0.00 0.00 0.00 82
20260507032020 21 129 1.6 3.2 0.00 0.00 0.00 81
20260507031019 21 202 1.6 3.2 0.00 0.00 0.00 79